Location: Koussan�
(15.2012°N, 12.5548°W)
Time: 12:21:54
(UTC+00:00)

Milstar 3 - Pass Details

Date: 20 October 2020
Orbit: 1101 x 5144 km, 28.2° (Epoch: 25 September)

Event Time Altitude Azimuth Distance (km) Brightness Sun altitude
Rises 19:58:35 0° 281° (WNW) 4,026 7.0 -22.8°
Reaches altitude 10° 20:01:39 10° 292° (WNW) 2,962 5.9 -23.5°
Maximum altitude 20:07:31 31° 355° (N) 1,864 3.9 -24.9°
Enters shadow 20:09:51 26° 28° (NNE) 2,160 4.0 -25.5°
